M I D A S
Marine Information and Data Acquisition System
Tripno 1864 of the Zeeleeuw from 2010-04-23 06:30:26 to 2010-04-23 15:38:00
Back to CruiseResearch ActivitiesStationsMapUnderway DataData graphs

EquipmentUnitsComments
TimeDGPSUTC
LatitudeDGPSDM.mWGS84
LongitudeDGPSDM.mWGS84
SpeedMeteo Stationm/sRelative wind speed
DirectionMeteo StationdegRelative wind direction
TemperatureMeteo Stationdeg CelciusAir temperature
PressureMeteo StationPaAtmospheric pressure
HumidityMeteo Station%Relative humidity
Missing or incorrect values are displayed as -999
Metereological data collected by the RV Zeeleeuw from 2010-04-23 06:21:22 to 2010-04-23 16:16:10
                                                                                    Next 1000 lines
Time Latitude Longitude Speed Direction Temperature Pressure Humidity
2010-04-23 06:21:32 51°13.661 2°55.957 0.1 283 6 101640 32
2010-04-23 06:21:37 51°13.662 2°55.955 -999 256 6 101640 32
2010-04-23 06:21:42 51°13.663 2°55.952 -999 283 5.9 101650 35
2010-04-23 06:21:47 51°13.664 2°55.948 -999 258 5.9 101650 35
2010-04-23 06:21:52 51°13.665 2°55.944 0.1 283 5.9 101650 32
2010-04-23 06:21:57 51°13.667 2°55.939 0.1 251 5.9 101650 32
2010-04-23 06:22:03 51°13.668 2°55.934 0.1 283 5.9 101650 32
2010-04-23 06:22:09 51°13.67 2°55.927 0.6 259 5.9 101650 32
2010-04-23 06:22:14 51°13.672 2°55.921 0.1 77 5.9 101650 32
2010-04-23 06:22:20 51°13.673 2°55.914 0.1 32 5.9 101650 32
2010-04-23 06:22:25 51°13.675 2°55.908 1.1 78 5.9 101650 32
2010-04-23 06:22:31 51°13.677 2°55.9 1.6 32 5.9 101650 32
2010-04-23 06:22:36 51°13.678 2°55.893 1.5 14 5.9 101650 32
2010-04-23 06:22:41 51°13.679 2°55.886 1.1 270 5.9 101650 32
2010-04-23 06:22:45 51°13.68 2°55.88 1.2 280 5.9 101650 34
2010-04-23 06:22:51 51°13.682 2°55.872 1.5 255 5.9 101650 34
2010-04-23 06:22:56 51°13.683 2°55.864 1.1 286 5.9 101650 32
2010-04-23 06:23:01 51°13.684 2°55.857 1.1 261 5.9 101650 32
2010-04-23 06:23:06 51°13.686 2°55.85 0.9 262 5.9 101650 30
2010-04-23 06:23:11 51°13.686 2°55.843 0.8 260 5.9 101650 30
2010-04-23 06:23:16 51°13.687 2°55.835 1 285 5.9 101650 32
2010-04-23 06:23:21 51°13.688 2°55.828 0.9 258 5.9 101650 32
2010-04-23 06:23:26 51°13.688 2°55.821 1 287 5.9 101650 34
2010-04-23 06:23:31 51°13.689 2°55.814 1.1 256 5.9 101650 34
2010-04-23 06:23:36 51°13.689 2°55.806 0.8 279 5.9 101650 32
2010-04-23 06:23:41 51°13.69 2°55.799 0.8 248 5.9 101650 32
2010-04-23 06:23:46 51°13.69 2°55.793 0.1 283 5.9 101650 35
2010-04-23 06:23:51 51°13.691 2°55.786 0.1 238 5.9 101650 35
2010-04-23 06:23:56 51°13.691 2°55.781 0.1 287 5.9 101650 31
2010-04-23 06:24:01 51°13.691 2°55.778 0.8 33 5.9 101650 31
2010-04-23 06:24:06 51°13.69 2°55.777 0.8 287 5.9 101650 32
2010-04-23 06:24:11 51°13.691 2°55.776 1 323 5.9 101650 32
2010-04-23 06:24:16 51°13.691 2°55.776 1.3 283 5.9 101650 32
2010-04-23 06:24:21 51°13.691 2°55.775 1.3 323 5.9 101650 32
2010-04-23 06:24:26 51°13.692 2°55.775 1.3 283 5.9 101650 31
2010-04-23 06:24:31 51°13.692 2°55.776 1.4 325 5.9 101650 31
2010-04-23 06:24:36 51°13.692 2°55.776 1.6 278 5.9 101650 31
2010-04-23 06:24:41 51°13.693 2°55.776 1.8 332 5.9 101650 31
2010-04-23 06:24:46 51°13.693 2°55.776 1.3 278 5.9 101650 31
2010-04-23 06:24:51 51°13.693 2°55.776 1.2 332 5.9 101650 31
2010-04-23 06:24:56 51°13.693 2°55.774 1.2 283 5.9 101650 31
2010-04-23 06:25:01 51°13.692 2°55.773 1.1 336 5.9 101650 31
2010-04-23 06:25:06 51°13.692 2°55.771 0.9 336 5.9 101650 32
2010-04-23 06:25:11 51°13.691 2°55.769 0.6 341 5.9 101650 32
2010-04-23 06:25:16 51°13.69 2°55.766 0.1 283 5.9 101650 33
2010-04-23 06:25:21 51°13.689 2°55.764 0.1 346 5.9 101650 33
2010-04-23 06:25:25 51°13.689 2°55.763 0.1 346 5.9 101650 31
2010-04-23 06:25:30 51°13.689 2°55.763 0.7 344 5.9 101650 31
2010-04-23 06:25:36 51°13.69 2°55.763 0.7 350 5.9 101650 31
2010-04-23 06:25:41 51°13.692 2°55.763 1.6 351 5.9 101650 31
2010-04-23 06:25:45 51°13.694 2°55.763 1.4 355 5.9 101650 32
2010-04-23 06:25:51 51°13.697 2°55.763 1.5 352 5.9 101650 32
2010-04-23 06:25:56 51°13.699 2°55.762 1.4 353 5.9 101650 33
2010-04-23 06:26:01 51°13.703 2°55.761 1.6 357 5.9 101650 33
2010-04-23 06:26:06 51°13.707 2°55.759 1.6 355 5.9 101650 34
2010-04-23 06:26:11 51°13.71 2°55.755 1.8 356 5.9 101650 34
2010-04-23 06:26:16 51°13.714 2°55.75 1.9 351 5.9 101650 34
2010-04-23 06:26:21 51°13.718 2°55.746 2.1 354 5.9 101650 34
2010-04-23 06:26:26 51°13.724 2°55.741 2.2 355 5.9 101650 35
2010-04-23 06:26:31 51°13.729 2°55.735 2.1 353 5.9 101650 35
2010-04-23 06:26:36 51°13.735 2°55.729 1.7 349 5.9 101650 34
2010-04-23 06:26:41 51°13.741 2°55.723 1.9 345 5.9 101650 34
2010-04-23 06:26:46 51°13.748 2°55.717 2.2 352 5.9 101650 32
2010-04-23 06:26:50 51°13.753 2°55.711 2.6 350 5.9 101650 32
2010-04-23 06:26:56 51°13.761 2°55.704 2.2 281 5.8 101650 34
2010-04-23 06:27:01 51°13.768 2°55.697 3.1 345 5.8 101650 34
2010-04-23 06:27:05 51°13.773 2°55.69 2.6 346 5.8 101650 31
2010-04-23 06:27:11 51°13.781 2°55.682 2.9 349 5.8 101650 31
2010-04-23 06:27:16 51°13.788 2°55.675 2.6 284 5.8 101650 31
2010-04-23 06:27:21 51°13.795 2°55.669 2.3 340 5.8 101650 31
2010-04-23 06:27:25 51°13.801 2°55.664 2.4 282 5.8 101650 31
2010-04-23 06:27:31 51°13.81 2°55.657 2.4 341 5.8 101650 31
2010-04-23 06:27:36 51°13.818 2°55.651 3.1 281 5.8 101650 31
2010-04-23 06:27:41 51°13.826 2°55.645 3.3 345 5.8 101650 31
2010-04-23 06:27:46 51°13.834 2°55.64 3.6 280 5.8 101650 32
2010-04-23 06:27:51 51°13.842 2°55.634 3.5 341 5.8 101650 32
2010-04-23 06:27:56 51°13.85 2°55.629 3.8 279 5.8 101650 31
2010-04-23 06:28:01 51°13.859 2°55.624 3.5 343 5.8 101650 31
2010-04-23 06:28:06 51°13.867 2°55.619 3.2 346 5.8 101650 31
2010-04-23 06:28:11 51°13.875 2°55.613 3.3 345 5.8 101650 31
2010-04-23 06:28:16 51°13.884 2°55.609 3.4 285 5.8 101650 30
2010-04-23 06:28:21 51°13.893 2°55.604 3.7 345 5.8 101650 30
2010-04-23 06:28:26 51°13.901 2°55.598 3.1 285 5.8 101650 31
2010-04-23 06:28:31 51°13.911 2°55.594 3.2 339 5.8 101650 31
2010-04-23 06:28:36 51°13.92 2°55.59 2.9 285 5.8 101650 31
2010-04-23 06:28:41 51°13.929 2°55.585 3 341 5.8 101650 31
2010-04-23 06:28:46 51°13.938 2°55.581 2.8 286 5.8 101650 31
2010-04-23 06:28:50 51°13.945 2°55.577 2.7 340 5.8 101650 31
2010-04-23 06:28:56 51°13.956 2°55.572 3.4 283 5.8 101650 31
2010-04-23 06:29:01 51°13.965 2°55.567 3.2 344 5.8 101650 31
2010-04-23 06:29:05 51°13.972 2°55.563 3.8 278 5.8 101650 34
2010-04-23 06:29:10 51°13.981 2°55.558 3.2 350 5.8 101650 34
2010-04-23 06:29:16 51°13.992 2°55.551 3.7 281 5.8 101650 32
2010-04-23 06:29:21 51°14.001 2°55.544 3.2 347 5.8 101650 32
2010-04-23 06:29:25 51°14.009 2°55.539 3.6 284 5.8 101650 34
2010-04-23 06:29:30 51°14.018 2°55.532 3.6 341 5.8 101650 34
2010-04-23 06:29:35 51°14.028 2°55.524 3.7 346 5.8 101650 34
2010-04-23 06:29:41 51°14.039 2°55.514 3.6 346 5.8 101650 34
2010-04-23 06:29:45 51°14.047 2°55.507 4.1 280 5.8 101650 31
2010-04-23 06:29:50 51°14.058 2°55.499 4.2 344 5.8 101650 31
2010-04-23 06:29:55 51°14.068 2°55.489 3.9 284 5.8 101650 34
2010-04-23 06:30:00 51°14.08 2°55.48 4.2 342 5.8 101650 34
2010-04-23 06:30:05 51°14.091 2°55.47 3.7 340 5.8 101650 34
2010-04-23 06:30:10 51°14.103 2°55.46 4.3 346 5.8 101650 34
2010-04-23 06:30:15 51°14.115 2°55.45 4.6 282 5.8 101650 33
2010-04-23 06:30:21 51°14.129 2°55.437 4.9 340 5.8 101650 33
2010-04-23 06:30:25 51°14.139 2°55.428 5 348 5.8 101650 31
2010-04-23 06:30:31 51°14.154 2°55.415 5 344 5.8 101650 31
2010-04-23 06:30:36 51°14.167 2°55.404 4.8 284 5.8 101650 34
2010-04-23 06:30:41 51°14.18 2°55.392 4.5 344 5.8 101650 34
2010-04-23 06:30:45 51°14.19 2°55.382 4.3 286 5.8 101640 32
2010-04-23 06:30:50 51°14.203 2°55.369 4.8 341 5.8 101640 32
2010-04-23 06:30:55 51°14.217 2°55.356 5.3 280 5.8 101650 30
2010-04-23 06:31:01 51°14.233 2°55.341 5.6 343 5.8 101650 30
2010-04-23 06:31:05 51°14.244 2°55.331 5.3 285 5.8 101650 32
2010-04-23 06:31:10 51°14.258 2°55.316 5 347 5.8 101650 32
2010-04-23 06:31:15 51°14.271 2°55.302 5.5 348 5.8 101640 31
2010-04-23 06:31:20 51°14.285 2°55.288 5.1 346 5.8 101640 31
2010-04-23 06:31:25 51°14.298 2°55.272 5.5 345 5.9 101640 34
2010-04-23 06:31:30 51°14.312 2°55.257 5.7 347 5.9 101640 34
2010-04-23 06:31:35 51°14.326 2°55.241 5.9 349 5.9 101640 34
2010-04-23 06:31:40 51°14.34 2°55.225 5.4 345 5.9 101640 34
2010-04-23 06:31:45 51°14.354 2°55.209 5.7 279 5.9 101640 32
2010-04-23 06:31:50 51°14.37 2°55.195 5.9 347 5.9 101640 32
2010-04-23 06:31:55 51°14.385 2°55.179 6.4 348 6 101640 34
2010-04-23 06:32:00 51°14.4 2°55.161 5.9 345 6 101640 34
2010-04-23 06:32:05 51°14.414 2°55.144 5.9 347 5.9 101640 33
2010-04-23 06:32:09 51°14.425 2°55.13 5.5 348 5.9 101640 33
2010-04-23 06:32:14 51°14.44 2°55.112 6 350 6 101640 33
2010-04-23 06:32:19 51°14.455 2°55.096 6.3 349 6 101640 33
2010-04-23 06:32:24 51°14.47 2°55.078 5.7 282 6 101640 32
2010-04-23 06:32:29 51°14.486 2°55.061 6.2 347 6 101640 32
2010-04-23 06:32:34 51°14.501 2°55.044 6.3 350 6 101640 32
2010-04-23 06:32:39 51°14.517 2°55.027 6.1 349 6 101640 32
2010-04-23 06:32:44 51°14.533 2°55.011 5.9 347 6 101640 34
2010-04-23 06:32:49 51°14.55 2°54.995 6.1 352 6 101640 34
2010-04-23 06:32:53 51°14.562 2°54.979 6.1 348 6.1 101640 35
2010-04-23 06:32:59 51°14.579 2°54.956 5.5 350 6.1 101640 35
2010-04-23 06:33:04 51°14.594 2°54.937 5.6 349 6.1 101640 34
2010-04-23 06:33:09 51°14.608 2°54.917 5.7 351 6.1 101640 34
2010-04-23 06:33:13 51°14.62 2°54.901 7.3 352 6.1 101640 35
2010-04-23 06:33:18 51°14.635 2°54.881 6.7 351 6.1 101640 35
2010-04-23 06:33:24 51°14.653 2°54.858 6 353 6.2 101640 35
2010-04-23 06:33:29 51°14.668 2°54.838 5.9 353 6.2 101640 35
2010-04-23 06:33:33 51°14.68 2°54.822 6.2 353 6.2 101640 32
2010-04-23 06:33:38 51°14.694 2°54.802 7 351 6.2 101640 32
2010-04-23 06:33:43 51°14.71 2°54.782 6.3 351 6.2 101630 33
2010-04-23 06:33:49 51°14.727 2°54.757 5.9 352 6.2 101630 33
2010-04-23 06:33:53 51°14.74 2°54.742 7.4 352 6.2 101640 35
2010-04-23 06:33:58 51°14.755 2°54.722 6.5 352 6.2 101640 35
2010-04-23 06:34:03 51°14.77 2°54.701 6.2 353 6.2 101640 34
2010-04-23 06:34:08 51°14.784 2°54.681 5.9 355 6.2 101640 34
2010-04-23 06:34:13 51°14.799 2°54.66 5.7 355 6.3 101630 33
2010-04-23 06:34:18 51°14.812 2°54.639 6.4 357 6.3 101630 33
2010-04-23 06:34:22 51°14.825 2°54.624 5.6 352 6.3 101640 35
2010-04-23 06:34:28 51°14.842 2°54.6 5.7 353 6.3 101640 35
2010-04-23 06:34:33 51°14.857 2°54.581 5.2 352 6.3 101640 32
2010-04-23 06:34:37 51°14.869 2°54.565 6.4 351 6.3 101640 32
2010-04-23 06:34:42 51°14.885 2°54.546 7.2 353 6.4 101630 34
2010-04-23 06:34:47 51°14.901 2°54.527 6.9 353 6.4 101630 34
2010-04-23 06:34:52 51°14.917 2°54.509 6 354 6.4 101640 32
2010-04-23 06:34:57 51°14.933 2°54.491 6.1 355 6.4 101640 32
2010-04-23 06:35:02 51°14.949 2°54.473 6 355 6.4 101640 34
2010-04-23 06:35:07 51°14.964 2°54.454 6.1 352 6.4 101640 34
2010-04-23 06:35:12 51°14.981 2°54.436 7.1 351 6.4 101630 32
2010-04-23 06:35:17 51°14.997 2°54.418 7.4 350 6.4 101630 32
2010-04-23 06:35:22 51°15.013 2°54.402 6.6 351 6.5 101630 32
2010-04-23 06:35:27 51°15.029 2°54.385 7.1 352 6.5 101630 32
2010-04-23 06:35:32 51°15.045 2°54.369 7.3 352 6.4 101640 32
2010-04-23 06:35:37 51°15.064 2°54.356 6.5 352 6.4 101640 32
2010-04-23 06:35:42 51°15.081 2°54.343 7 352 6.5 101630 34
2010-04-23 06:35:47 51°15.099 2°54.329 6.9 352 6.5 101630 34
2010-04-23 06:35:52 51°15.118 2°54.315 7.1 352 6.5 101630 33
2010-04-23 06:35:57 51°15.136 2°54.303 6.3 353 6.5 101630 33
2010-04-23 06:36:02 51°15.154 2°54.29 7.3 351 6.6 101640 34
2010-04-23 06:36:07 51°15.173 2°54.278 7.4 349 6.6 101640 34
2010-04-23 06:36:12 51°15.191 2°54.265 8.3 351 6.6 101640 33
2010-04-23 06:36:17 51°15.209 2°54.253 8.1 351 6.6 101640 33
2010-04-23 06:36:22 51°15.227 2°54.24 8.1 351 6.6 101640 32
2010-04-23 06:36:27 51°15.245 2°54.227 7.3 351 6.6 101640 32
2010-04-23 06:36:32 51°15.263 2°54.213 6.7 350 6.6 101640 33
2010-04-23 06:36:37 51°15.28 2°54.2 8.1 351 6.6 101640 33
2010-04-23 06:36:42 51°15.298 2°54.185 7.1 278 6.6 101630 33
2010-04-23 06:36:47 51°15.315 2°54.171 6.5 352 6.6 101630 33
2010-04-23 06:36:52 51°15.332 2°54.156 7.6 350 6.6 101630 33
2010-04-23 06:36:57 51°15.35 2°54.142 7.7 352 6.6 101630 33
2010-04-23 06:37:02 51°15.367 2°54.127 7 352 6.7 101640 32
2010-04-23 06:37:07 51°15.383 2°54.111 6.8 351 6.7 101640 32
2010-04-23 06:37:12 51°15.4 2°54.096 7.5 280 6.7 101640 32
2010-04-23 06:37:17 51°15.418 2°54.082 7.6 352 6.7 101640 32
2010-04-23 06:37:22 51°15.436 2°54.069 7.7 348 6.7 101630 32
2010-04-23 06:37:27 51°15.455 2°54.056 7.3 350 6.7 101630 32
2010-04-23 06:37:32 51°15.473 2°54.045 7.8 348 6.8 101630 34
2010-04-23 06:37:37 51°15.491 2°54.032 7.5 349 6.8 101630 34
2010-04-23 06:37:42 51°15.51 2°54.021 7.8 279 6.8 101640 32
2010-04-23 06:37:47 51°15.528 2°54.01 7.5 347 6.8 101640 32
2010-04-23 06:37:52 51°15.545 2°54.001 7.4 347 6.8 101640 33
2010-04-23 06:37:57 51°15.564 2°53.99 7.5 350 6.8 101640 33
2010-04-23 06:38:02 51°15.584 2°53.98 7.5 349 6.8 101640 33
2010-04-23 06:38:07 51°15.603 2°53.97 7.3 349 6.8 101640 33
2010-04-23 06:38:12 51°15.622 2°53.961 6.9 350 6.8 101640 34
2010-04-23 06:38:17 51°15.641 2°53.952 8 349 6.8 101640 34
2010-04-23 06:38:21 51°15.657 2°53.945 8.5 348 6.9 101630 33
2010-04-23 06:38:27 51°15.679 2°53.934 8 349 6.9 101630 33
2010-04-23 06:38:32 51°15.698 2°53.925 8.1 350 6.9 101630 32
2010-04-23 06:38:37 51°15.717 2°53.916 7.5 349 6.9 101630 32
2010-04-23 06:38:41 51°15.732 2°53.909 8 280 6.9 101630 31
2010-04-23 06:38:47 51°15.755 2°53.898 7.6 349 6.9 101630 31
2010-04-23 06:38:52 51°15.773 2°53.889 7.7 350 6.9 101620 30
2010-04-23 06:38:57 51°15.791 2°53.88 6.8 350 6.9 101620 30
2010-04-23 06:39:02 51°15.81 2°53.871 7.5 349 6.9 101640 33
2010-04-23 06:39:07 51°15.829 2°53.862 7.6 350 6.9 101640 33
2010-04-23 06:39:12 51°15.849 2°53.851 7.4 350 6.9 101630 33
2010-04-23 06:39:17 51°15.869 2°53.841 7 349 6.9 101630 33
2010-04-23 06:39:21 51°15.884 2°53.834 6.8 279 6.9 101630 31
2010-04-23 06:39:27 51°15.907 2°53.823 7.2 348 6.9 101630 31
2010-04-23 06:39:32 51°15.926 2°53.814 8.1 351 6.9 101640 34
2010-04-23 06:39:37 51°15.943 2°53.802 7 350 6.9 101640 34
2010-04-23 06:39:42 51°15.96 2°53.79 6.9 352 7 101640 33
2010-04-23 06:39:47 51°15.978 2°53.779 7.6 351 7 101640 33
2010-04-23 06:39:52 51°15.997 2°53.768 7.5 351 7 101630 32
2010-04-23 06:39:57 51°16.017 2°53.758 7.3 350 7 101630 32
2010-04-23 06:40:02 51°16.036 2°53.746 7 351 7 101630 34
2010-04-23 06:40:07 51°16.055 2°53.734 6.6 348 7 101630 34
2010-04-23 06:40:12 51°16.073 2°53.722 7.1 350 6.9 101630 33
2010-04-23 06:40:17 51°16.091 2°53.71 6.8 349 6.9 101630 33
2010-04-23 06:40:21 51°16.105 2°53.7 8.3 350 6.9 101640 32
2010-04-23 06:40:27 51°16.127 2°53.685 7.7 349 6.9 101640 32
2010-04-23 06:40:32 51°16.145 2°53.672 7.9 351 7 101640 32
2010-04-23 06:40:37 51°16.163 2°53.659 7.4 353 7 101640 32
2010-04-23 06:40:41 51°16.177 2°53.648 6.6 352 7 101640 32
2010-04-23 06:40:47 51°16.198 2°53.632 5.9 350 7 101640 32
2010-04-23 06:40:52 51°16.216 2°53.618 7.5 350 7 101640 32
2010-04-23 06:40:57 51°16.233 2°53.603 6.7 351 7 101640 32
2010-04-23 06:41:02 51°16.25 2°53.589 6.7 350 7 101630 32
2010-04-23 06:41:07 51°16.267 2°53.574 7.5 350 7 101630 32
2010-04-23 06:41:12 51°16.284 2°53.559 7.2 351 7 101640 32
2010-04-23 06:41:17 51°16.301 2°53.545 7 352 7 101640 32
2010-04-23 06:41:22 51°16.319 2°53.53 6.5 353 7 101630 32
2010-04-23 06:41:27 51°16.334 2°53.517 7.2 352 7 101630 32
2010-04-23 06:41:32 51°16.351 2°53.503 7 351 7.1 101630 32
2010-04-23 06:41:37 51°16.369 2°53.487 7.5 353 7.1 101630 32
2010-04-23 06:41:42 51°16.388 2°53.471 6.1 352 7 101630 34
2010-04-23 06:41:47 51°16.404 2°53.455 6.7 353 7 101630 34
2010-04-23 06:41:52 51°16.422 2°53.44 7.1 352 7 101640 33
2010-04-23 06:41:57 51°16.437 2°53.426 6.6 350 7 101640 33
2010-04-23 06:42:02 51°16.453 2°53.413 7.3 350 7 101630 33
2010-04-23 06:42:07 51°16.469 2°53.398 6.8 350 7 101630 33
2010-04-23 06:42:12 51°16.487 2°53.384 7.7 351 7 101640 33
2010-04-23 06:42:17 51°16.504 2°53.369 7.4 351 7 101640 33
2010-04-23 06:42:22 51°16.522 2°53.355 7.2 352 7 101640 32
2010-04-23 06:42:27 51°16.539 2°53.34 6.7 351 7 101640 32
2010-04-23 06:42:32 51°16.557 2°53.327 7 352 7 101640 32
2010-04-23 06:42:37 51°16.575 2°53.313 6.4 350 7 101640 32
2010-04-23 06:42:41 51°16.588 2°53.301 7.3 350 7 101640 32
2010-04-23 06:42:47 51°16.609 2°53.283 7.4 352 7 101640 32
2010-04-23 06:42:52 51°16.626 2°53.269 7 349 7 101630 33
2010-04-23 06:42:57 51°16.643 2°53.254 6.7 352 7 101630 33
2010-04-23 06:43:02 51°16.66 2°53.24 7.1 353 7 101640 34
2010-04-23 06:43:07 51°16.677 2°53.225 7 354 7 101640 34
2010-04-23 06:43:12 51°16.695 2°53.211 6.7 348 7 101640 33
2010-04-23 06:43:17 51°16.712 2°53.197 7 350 7 101640 33
2010-04-23 06:43:22 51°16.729 2°53.183 6.8 279 7 101640 33
2010-04-23 06:43:27 51°16.746 2°53.168 6.2 352 7 101640 33
2010-04-23 06:43:32 51°16.764 2°53.153 7.1 348 7.1 101630 34
2010-04-23 06:43:37 51°16.78 2°53.138 7 350 7.1 101630 34
2010-04-23 06:43:42 51°16.797 2°53.124 6.6 352 7.1 101640 32
2010-04-23 06:43:47 51°16.815 2°53.11 6.3 352 7.1 101640 32
2010-04-23 06:43:52 51°16.832 2°53.095 7.2 278 7.1 101640 32
2010-04-23 06:43:57 51°16.849 2°53.081 6.5 350 7.1 101640 32
2010-04-23 06:44:02 51°16.866 2°53.066 7.1 349 7.1 101640 32
2010-04-23 06:44:07 51°16.882 2°53.051 6.3 350 7.1 101640 32
2010-04-23 06:44:12 51°16.899 2°53.035 7.1 354 7.1 101630 30
2010-04-23 06:44:17 51°16.915 2°53.02 6.1 354 7.1 101630 30
2010-04-23 06:44:22 51°16.931 2°53.004 7.9 353 7.1 101630 33
2010-04-23 06:44:27 51°16.948 2°52.988 6.6 353 7.1 101630 33
2010-04-23 06:44:32 51°16.964 2°52.971 6.3 353 7.2 101640 32
2010-04-23 06:44:37 51°16.98 2°52.954 6.5 353 7.2 101640 32
2010-04-23 06:44:42 51°16.996 2°52.937 6.7 354 7.2 101640 33
2010-04-23 06:44:47 51°17.012 2°52.92 5.7 352 7.2 101640 33
2010-04-23 06:44:52 51°17.028 2°52.902 6.3 351 7.1 101630 33
2010-04-23 06:44:57 51°17.044 2°52.885 7.5 351 7.1 101630 33
2010-04-23 06:45:02 51°17.061 2°52.867 6.5 353 7.1 101640 34
2010-04-23 06:45:07 51°17.077 2°52.85 6.1 350 7.1 101640 34
2010-04-23 06:45:12 51°17.094 2°52.835 8 351 7.2 101640 32
2010-04-23 06:45:17 51°17.11 2°52.819 7.2 350 7.2 101640 32
2010-04-23 06:45:22 51°17.128 2°52.804 7.4 351 7.2 101640 33
2010-04-23 06:45:27 51°17.145 2°52.789 6.9 351 7.2 101640 33
2010-04-23 06:45:32 51°17.163 2°52.774 6.2 353 7.2 101640 32
2010-04-23 06:45:37 51°17.18 2°52.76 6.1 352 7.2 101640 32
2010-04-23 06:45:42 51°17.197 2°52.746 7.3 354 7.2 101640 32
2010-04-23 06:45:47 51°17.216 2°52.736 7.1 350 7.2 101640 32
2010-04-23 06:45:52 51°17.235 2°52.723 7.7 352 7.2 101630 34
2010-04-23 06:45:57 51°17.254 2°52.716 6.6 350 7.2 101630 34
2010-04-23 06:46:02 51°17.273 2°52.705 7.9 347 7.2 101640 35
2010-04-23 06:46:07 51°17.292 2°52.697 8.5 347 7.2 101640 35
2010-04-23 06:46:12 51°17.311 2°52.688 7.6 280 7.2 101640 34
2010-04-23 06:46:17 51°17.331 2°52.682 7.9 349 7.2 101640 34
2010-04-23 06:46:22 51°17.35 2°52.674 6.9 349 7.2 101640 33
2010-04-23 06:46:27 51°17.37 2°52.668 8 347 7.2 101640 33
2010-04-23 06:46:32 51°17.389 2°52.661 8.2 349 7.2 101640 33
2010-04-23 06:46:37 51°17.409 2°52.655 6.9 348 7.2 101640 33
2010-04-23 06:46:42 51°17.429 2°52.649 7.5 279 7.2 101640 34
2010-04-23 06:46:47 51°17.449 2°52.643 7.6 346 7.2 101640 34
2010-04-23 06:46:52 51°17.469 2°52.637 7.5 347 7.2 101640 31
2010-04-23 06:46:57 51°17.489 2°52.632 6.9 348 7.2 101640 31
2010-04-23 06:47:02 51°17.509 2°52.627 7.4 348 7.2 101630 32
2010-04-23 06:47:07 51°17.529 2°52.623 7.9 347 7.2 101630 32
2010-04-23 06:47:12 51°17.549 2°52.619 7.5 280 7.2 101630 32
2010-04-23 06:47:17 51°17.569 2°52.615 7.8 347 7.2 101630 32
2010-04-23 06:47:21 51°17.585 2°52.612 8.1 348 7.2 101630 34
2010-04-23 06:47:27 51°17.609 2°52.607 7.1 348 7.2 101630 34
2010-04-23 06:47:32 51°17.63 2°52.604 8.1 282 7.2 101630 32
2010-04-23 06:47:37 51°17.65 2°52.6 7.3 349 7.2 101630 32
2010-04-23 06:47:41 51°17.666 2°52.596 7.2 279 7.2 101630 34
2010-04-23 06:47:47 51°17.69 2°52.591 8 348 7.2 101630 34
2010-04-23 06:47:52 51°17.71 2°52.587 7 279 7.2 101640 32
2010-04-23 06:47:57 51°17.73 2°52.583 8 348 7.2 101640 32
2010-04-23 06:48:02 51°17.75 2°52.578 7.5 347 7.2 101630 31
2010-04-23 06:48:07 51°17.77 2°52.575 6.9 348 7.2 101630 31
2010-04-23 06:48:12 51°17.79 2°52.57 8.4 349 7.2 101630 33
2010-04-23 06:48:17 51°17.81 2°52.566 7.4 348 7.2 101630 33
2010-04-23 06:48:22 51°17.83 2°52.562 7.4 281 7.2 101630 34
2010-04-23 06:48:27 51°17.85 2°52.557 7.3 349 7.2 101630 34
2010-04-23 06:48:32 51°17.871 2°52.552 8 348 7.2 101630 32
2010-04-23 06:48:37 51°17.891 2°52.548 7.1 348 7.2 101630 32
2010-04-23 06:48:42 51°17.911 2°52.544 7.8 347 7.3 101630 34
2010-04-23 06:48:47 51°17.931 2°52.539 7.8 347 7.3 101630 34
2010-04-23 06:48:52 51°17.952 2°52.535 7 279 7.3 101630 33
2010-04-23 06:48:57 51°17.972 2°52.53 7.4 348 7.3 101630 33
2010-04-23 06:49:02 51°17.992 2°52.525 7.6 348 7.3 101630 34
2010-04-23 06:49:07 51°18.012 2°52.52 7.2 349 7.3 101630 34
2010-04-23 06:49:12 51°18.032 2°52.515 7.2 282 7.3 101630 32
2010-04-23 06:49:17 51°18.052 2°52.511 8.3 349 7.3 101630 32
2010-04-23 06:49:21 51°18.068 2°52.507 7.2 347 7.3 101630 32
2010-04-23 06:49:27 51°18.092 2°52.502 8.2 349 7.3 101630 32
2010-04-23 06:49:32 51°18.113 2°52.498 8.4 349 7.3 101640 32
2010-04-23 06:49:37 51°18.132 2°52.493 8.6 349 7.3 101640 32
2010-04-23 06:49:41 51°18.148 2°52.489 8 349 7.3 101630 34
2010-04-23 06:49:47 51°18.172 2°52.483 7 349 7.3 101630 34
2010-04-23 06:49:52 51°18.192 2°52.478 7.7 279 7.3 101630 32
2010-04-23 06:49:57 51°18.212 2°52.473 7.6 348 7.3 101630 32
2010-04-23 06:50:02 51°18.232 2°52.469 6.9 350 7.3 101640 32
2010-04-23 06:50:07 51°18.252 2°52.464 6.9 349 7.3 101640 32
2010-04-23 06:50:12 51°18.272 2°52.459 7.5 349 7.3 101630 32
2010-04-23 06:50:17 51°18.292 2°52.454 7.5 348 7.3 101630 32
2010-04-23 06:50:22 51°18.312 2°52.449 7.1 281 7.3 101640 33
2010-04-23 06:50:27 51°18.332 2°52.445 8.3 347 7.3 101640 33
2010-04-23 06:50:32 51°18.352 2°52.439 7.5 282 7.3 101640 34
2010-04-23 06:50:37 51°18.372 2°52.435 7.1 348 7.3 101640 34
2010-04-23 06:50:42 51°18.392 2°52.43 7.7 279 7.4 101630 34
2010-04-23 06:50:47 51°18.412 2°52.426 7.1 347 7.4 101630 34
2010-04-23 06:50:52 51°18.432 2°52.42 7.8 281 7.4 101640 34
2010-04-23 06:50:57 51°18.452 2°52.416 8.6 347 7.4 101640 34
2010-04-23 06:51:02 51°18.471 2°52.41 8.1 347 7.4 101630 32
2010-04-23 06:51:07 51°18.492 2°52.406 8 348 7.4 101630 32
2010-04-23 06:51:12 51°18.511 2°52.401 7.7 351 7.4 101630 34
2010-04-23 06:51:17 51°18.531 2°52.396 7.7 348 7.4 101630 34
2010-04-23 06:51:22 51°18.551 2°52.392 7.1 280 7.4 101630 33
2010-04-23 06:51:27 51°18.571 2°52.387 7.3 348 7.4 101630 33
2010-04-23 06:51:32 51°18.591 2°52.382 7.2 347 7.4 101630 34
2010-04-23 06:51:37 51°18.611 2°52.377 8.5 347 7.4 101630 34
2010-04-23 06:51:41 51°18.627 2°52.373 6.8 278 7.4 101630 34
2010-04-23 06:51:47 51°18.651 2°52.367 7.6 348 7.4 101630 34
2010-04-23 06:51:52 51°18.671 2°52.362 9.3 281 7.4 101630 34
2010-04-23 06:51:57 51°18.691 2°52.357 7.6 346 7.4 101630 34
2010-04-23 06:52:02 51°18.711 2°52.353 7.8 347 7.4 101640 32
2010-04-23 06:52:07 51°18.73 2°52.347 7 348 7.4 101640 32
2010-04-23 06:52:12 51°18.75 2°52.343 7.4 282 7.4 101630 31
2010-04-23 06:52:17 51°18.77 2°52.338 8.3 346 7.4 101630 31
2010-04-23 06:52:22 51°18.79 2°52.333 8.3 348 7.4 101630 32
2010-04-23 06:52:27 51°18.81 2°52.329 8.3 348 7.4 101630 32
2010-04-23 06:52:32 51°18.83 2°52.324 7.7 349 7.4 101630 33
2010-04-23 06:52:37 51°18.85 2°52.32 7.5 349 7.4 101630 33
2010-04-23 06:52:42 51°18.87 2°52.315 6.9 350 7.4 101630 34
2010-04-23 06:52:47 51°18.889 2°52.31 7.7 349 7.4 101630 34
2010-04-23 06:52:52 51°18.909 2°52.304 7.2 280 7.4 101630 32
2010-04-23 06:52:57 51°18.929 2°52.299 8.6 346 7.4 101630 32
2010-04-23 06:53:02 51°18.948 2°52.294 7.7 346 7.4 101630 34
2010-04-23 06:53:07 51°18.968 2°52.29 7.2 346 7.4 101630 34
2010-04-23 06:53:12 51°18.988 2°52.285 7.6 346 7.4 101630 32
2010-04-23 06:53:17 51°19.008 2°52.28 7.4 345 7.4 101630 32
2010-04-23 06:53:22 51°19.028 2°52.276 7.4 346 7.4 101630 32
2010-04-23 06:53:27 51°19.048 2°52.271 7.4 346 7.4 101630 32
2010-04-23 06:53:32 51°19.068 2°52.266 7.5 281 7.4 101630 34
2010-04-23 06:53:37 51°19.088 2°52.261 8.2 347 7.4 101630 34
2010-04-23 06:53:42 51°19.108 2°52.257 7 283 7.4 101630 33
2010-04-23 06:53:47 51°19.127 2°52.251 7.7 348 7.4 101630 33
2010-04-23 06:53:52 51°19.147 2°52.246 8 347 7.4 101630 32
2010-04-23 06:53:57 51°19.167 2°52.24 7.7 346 7.4 101630 32
2010-04-23 06:54:01 51°19.182 2°52.236 7.3 346 7.4 101630 33
2010-04-23 06:54:07 51°19.207 2°52.23 7.4 348 7.4 101630 33
2010-04-23 06:54:12 51°19.227 2°52.224 7.4 348 7.4 101630 34
2010-04-23 06:54:17 51°19.246 2°52.219 7.7 348 7.4 101630 34
2010-04-23 06:54:21 51°19.262 2°52.215 7.2 347 7.4 101640 34
2010-04-23 06:54:27 51°19.286 2°52.209 9.1 347 7.4 101640 34
2010-04-23 06:54:32 51°19.306 2°52.203 7.6 347 7.4 101630 33
2010-04-23 06:54:37 51°19.326 2°52.198 7.5 347 7.4 101630 33
2010-04-23 06:54:41 51°19.342 2°52.194 6.9 279 7.3 101630 34
2010-04-23 06:54:47 51°19.366 2°52.188 6.9 349 7.3 101630 34
2010-04-23 06:54:52 51°19.386 2°52.183 7.8 347 7.3 101630 31
2010-04-23 06:54:57 51°19.406 2°52.178 7.7 347 7.3 101630 31
2010-04-23 06:55:02 51°19.426 2°52.174 7 349 7.4 101640 33
2010-04-23 06:55:07 51°19.446 2°52.169 7.9 348 7.4 101640 33
2010-04-23 06:55:12 51°19.466 2°52.164 8.4 348 7.4 101630 33
2010-04-23 06:55:17 51°19.487 2°52.159 8.3 348 7.4 101630 33
2010-04-23 06:55:21 51°19.503 2°52.155 8.5 349 7.4 101630 34
2010-04-23 06:55:27 51°19.527 2°52.15 7.8 350 7.4 101630 34
2010-04-23 06:55:32 51°19.547 2°52.145 7.6 350 7.4 101630 34
2010-04-23 06:55:37 51°19.567 2°52.14 7.6 348 7.4 101630 34
2010-04-23 06:55:41 51°19.584 2°52.136 8.5 350 7.4 101630 34
2010-04-23 06:55:47 51°19.608 2°52.13 7.7 350 7.4 101630 34
2010-04-23 06:55:52 51°19.628 2°52.124 7.3 352 7.4 101630 34
2010-04-23 06:55:57 51°19.648 2°52.119 7.5 351 7.4 101630 34
2010-04-23 06:56:02 51°19.667 2°52.11 7.6 351 7.4 101630 32
2010-04-23 06:56:07 51°19.687 2°52.102 6.9 352 7.4 101630 32
2010-04-23 06:56:12 51°19.706 2°52.091 8.1 352 7.4 101630 31
2010-04-23 06:56:17 51°19.725 2°52.081 6.8 353 7.4 101630 31
2010-04-23 06:56:21 51°19.74 2°52.071 7.6 354 7.4 101630 32
2010-04-23 06:56:27 51°19.763 2°52.058 6.9 354 7.4 101630 32
2010-04-23 06:56:32 51°19.782 2°52.046 7.2 350 7.4 101640 32
2010-04-23 06:56:37 51°19.8 2°52.033 7.8 351 7.4 101640 32
2010-04-23 06:56:41 51°19.815 2°52.023 8.7 353 7.4 101630 32
2010-04-23 06:56:47 51°19.837 2°52.007 7.6 352 7.4 101630 32
2010-04-23 06:56:52 51°19.855 2°51.993 6.7 351 7.4 101640 32
2010-04-23 06:56:57 51°19.873 2°51.979 7.5 353 7.4 101640 32
2010-04-23 06:57:01 51°19.887 2°51.968 7.4 351 7.4 101640 33
2010-04-23 06:57:07 51°19.908 2°51.95 7.7 352 7.4 101640 33
2010-04-23 06:57:12 51°19.926 2°51.934 7 352 7.5 101640 32
2010-04-23 06:57:17 51°19.943 2°51.919 6.6 351 7.5 101640 32
2010-04-23 06:57:21 51°19.957 2°51.906 7.2 354 7.5 101640 34
2010-04-23 06:57:27 51°19.977 2°51.887 6.2 352 7.5 101640 34
2010-04-23 06:57:32 51°19.995 2°51.871 7.1 351 7.5 101640 32
2010-04-23 06:57:37 51°20.012 2°51.855 6.9 350 7.5 101640 32
2010-04-23 06:57:41 51°20.025 2°51.841 6.6 351 7.5 101630 32
2010-04-23 06:57:47 51°20.045 2°51.821 6.4 351 7.5 101630 32
2010-04-23 06:57:52 51°20.062 2°51.804 6.7 353 7.5 101640 33
2010-04-23 06:57:57 51°20.079 2°51.788 6.6 353 7.5 101640 33
2010-04-23 06:58:01 51°20.093 2°51.775 6 352 7.5 101640 32
2010-04-23 06:58:07 51°20.112 2°51.753 6.4 354 7.5 101640 32
2010-04-23 06:58:12 51°20.129 2°51.737 5.3 353 7.5 101640 34
2010-04-23 06:58:17 51°20.144 2°51.717 5.8 357 7.5 101640 34
2010-04-23 06:58:21 51°20.157 2°51.702 5.6 351 7.5 101640 33
2010-04-23 06:58:27 51°20.176 2°51.68 6.7 353 7.5 101640 33
2010-04-23 06:58:32 51°20.191 2°51.66 5.7 352 7.5 101640 33
2010-04-23 06:58:37 51°20.206 2°51.641 6.4 353 7.5 101640 33
2010-04-23 06:58:41 51°20.218 2°51.625 5.6 353 7.5 101640 32
2010-04-23 06:58:46 51°20.232 2°51.604 5.6 354 7.5 101640 32
2010-04-23 06:58:52 51°20.25 2°51.58 5.6 353 7.5 101650 32
2010-04-23 06:58:57 51°20.264 2°51.559 6.1 351 7.5 101650 32
2010-04-23 06:59:01 51°20.276 2°51.543 6.4 351 7.5 101650 32
2010-04-23 06:59:06 51°20.291 2°51.523 6.7 352 7.5 101650 32
2010-04-23 06:59:12 51°20.307 2°51.498 5.6 279 7.5 101650 35
2010-04-23 06:59:17 51°20.322 2°51.477 6.1 351 7.5 101650 35
2010-04-23 06:59:21 51°20.333 2°51.46 6.1 352 7.5 101640 34
2010-04-23 06:59:27 51°20.351 2°51.436 5.3 353 7.5 101640 34
2010-04-23 06:59:32 51°20.365 2°51.415 5.9 351 7.5 101650 33
2010-04-23 06:59:37 51°20.38 2°51.394 5.4 351 7.5 101650 33
2010-04-23 06:59:41 51°20.391 2°51.378 5.6 355 7.5 101650 34
2010-04-23 06:59:47 51°20.409 2°51.354 5.4 352 7.5 101650 34
2010-04-23 06:59:52 51°20.424 2°51.335 5.4 352 7.5 101650 32
2010-04-23 06:59:57 51°20.438 2°51.314 5.6 352 7.5 101650 32
2010-04-23 07:00:01 51°20.45 2°51.299 6.1 354 7.5 101650 34
2010-04-23 07:00:07 51°20.469 2°51.275 6.6 352 7.5 101650 34
2010-04-23 07:00:12 51°20.484 2°51.256 6 351 7.5 101640 31
2010-04-23 07:00:17 51°20.499 2°51.237 5.4 351 7.5 101640 31
2010-04-23 07:00:21 51°20.512 2°51.222 6.5 353 7.6 101640 32
2010-04-23 07:00:27 51°20.53 2°51.199 6 349 7.6 101640 32
2010-04-23 07:00:32 51°20.546 2°51.18 6.2 350 7.5 101640 33
2010-04-23 07:00:37 51°20.562 2°51.162 6.5 349 7.5 101640 33
2010-04-23 07:00:41 51°20.575 2°51.148 7 349 7.5 101640 34
2010-04-23 07:00:47 51°20.594 2°51.126 7 350 7.5 101640 34
2010-04-23 07:00:52 51°20.61 2°51.108 6.9 350 7.5 101640 35
2010-04-23 07:00:57 51°20.625 2°51.089 6.2 352 7.5 101640 35
2010-04-23 07:01:01 51°20.638 2°51.074 6.1 351 7.5 101650 35
2010-04-23 07:01:07 51°20.657 2°51.051 6.8 352 7.5 101650 35
2010-04-23 07:01:12 51°20.672 2°51.032 5.6 352 7.5 101640 35
2010-04-23 07:01:17 51°20.688 2°51.014 6 354 7.5 101640 35
2010-04-23 07:01:21 51°20.701 2°51 5.6 353 7.5 101640 33
2010-04-23 07:01:27 51°20.72 2°50.977 6.9 349 7.5 101640 33
2010-04-23 07:01:32 51°20.736 2°50.959 6.5 350 7.5 101640 35
2010-04-23 07:01:37 51°20.752 2°50.941 5.8 348 7.5 101640 35
2010-04-23 07:01:41 51°20.765 2°50.926 6.6 350 7.5 101650 33
2010-04-23 07:01:47 51°20.783 2°50.904 6.7 353 7.5 101650 33
2010-04-23 07:01:52 51°20.799 2°50.885 6.5 353 7.5 101640 33
2010-04-23 07:01:57 51°20.814 2°50.866 6.5 354 7.5 101640 33
2010-04-23 07:02:02 51°20.83 2°50.847 6.8 350 7.5 101650 32
2010-04-23 07:02:07 51°20.846 2°50.829 7.7 351 7.5 101650 32
2010-04-23 07:02:12 51°20.862 2°50.811 6.8 348 7.5 101640 34
2010-04-23 07:02:17 51°20.878 2°50.792 6.8 352 7.5 101640 34
2010-04-23 07:02:22 51°20.894 2°50.773 6.4 350 7.5 101640 33
2010-04-23 07:02:27 51°20.909 2°50.754 6.3 348 7.5 101640 33
2010-04-23 07:02:32 51°20.926 2°50.736 6.6 349 7.5 101640 34
2010-04-23 07:02:37 51°20.942 2°50.718 6.9 345 7.5 101640 34
2010-04-23 07:02:41 51°20.955 2°50.704 6.2 348 7.5 101640 35
2010-04-23 07:02:47 51°20.974 2°50.681 6.6 350 7.5 101640 35
2010-04-23 07:02:52 51°20.99 2°50.663 7 351 7.5 101650 34
2010-04-23 07:02:57 51°21.006 2°50.644 6.8 351 7.5 101650 34
2010-04-23 07:03:01 51°21.019 2°50.629 6.8 350 7.5 101640 34
2010-04-23 07:03:07 51°21.038 2°50.607 6.2 351 7.5 101640 34
2010-04-23 07:03:12 51°21.055 2°50.589 6 351 7.5 101640 33
2010-04-23 07:03:17 51°21.071 2°50.571 6.4 351 7.5 101640 33
2010-04-23 07:03:21 51°21.084 2°50.556 6.3 350 7.5 101650 35
2010-04-23 07:03:27 51°21.103 2°50.535 5.7 349 7.5 101650 35
2010-04-23 07:03:32 51°21.119 2°50.516 6.5 279 7.5 101640 33
2010-04-23 07:03:37 51°21.135 2°50.497 7.5 348 7.5 101640 33
2010-04-23 07:03:41 51°21.148 2°50.482 6.3 347 7.5 101650 33
2010-04-23 07:03:47 51°21.167 2°50.459 6.5 345 7.5 101650 33
2010-04-23 07:03:52 51°21.183 2°50.442 7.2 349 7.5 101650 34
2010-04-23 07:03:57 51°21.199 2°50.424 7.6 349 7.5 101650 34
2010-04-23 07:04:02 51°21.216 2°50.405 7.8 349 7.6 101650 35
2010-04-23 07:04:07 51°21.232 2°50.387 6.8 349 7.6 101650 35
2010-04-23 07:04:07 51°21.232 2°50.387 6.8 349 7.6 101650 35
2010-04-23 07:04:19 51°21.27 2°50.342 6.9 348 7.6 101640 35
2010-04-23 07:04:24 51°21.286 2°50.324 7.5 347 7.6 101640 35
2010-04-23 07:04:24 51°21.286 2°50.324 7.5 347 7.6 101640 35
2010-04-23 07:04:41 51°21.341 2°50.263 7.3 349 7.6 101650 33
2010-04-23 07:04:46 51°21.357 2°50.245 7 349 7.6 101650 33
2010-04-23 07:04:49 51°21.367 2°50.234 7 347 7.6 101650 33
2010-04-23 07:04:56 51°21.39 2°50.209 6.7 349 7.6 101650 33
2010-04-23 07:05:13 51°21.445 2°50.147 7 349 7.6 101640 33
2010-04-23 07:05:36 51°21.52 2°50.063 6.7 348 7.6 101640 34
2010-04-23 07:05:41 51°21.536 2°50.046 6.4 348 7.6 101640 36
2010-04-23 07:05:46 51°21.552 2°50.027 6.1 347 7.6 101640 36
2010-04-23 07:06:01 51°21.601 2°49.972 6 348 7.6 101650 34
2010-04-23 07:06:15 51°21.647 2°49.92 7.4 347 7.6 101650 33
2010-04-23 07:07:29 51°21.89 2°49.652 6.9 349 7.5 101650 34
2010-04-23 07:07:35 51°21.909 2°49.629 7.2 348 7.5 101650 34
2010-04-23 07:07:40 51°21.926 2°49.611 7.2 348 7.6 101640 33
2010-04-23 07:07:45 51°21.943 2°49.593 7.4 347 7.6 101640 33
2010-04-23 07:07:49 51°21.956 2°49.579 6.5 346 7.6 101650 36
2010-04-23 07:07:55 51°21.976 2°49.558 7.5 346 7.6 101650 36
2010-04-23 07:08:00 51°21.992 2°49.539 7.4 349 7.6 101650 36
2010-04-23 07:08:05 51°22.009 2°49.521 6.6 350 7.6 101650 36
2010-04-23 07:08:09 51°22.02 2°49.504 6.7 348 7.6 101650 34
2010-04-23 07:08:15 51°22.039 2°49.481 6.8 348 7.6 101650 34
2010-04-23 07:08:20 51°22.053 2°49.459 6.5 346 7.6 101650 34
2010-04-23 07:08:25 51°22.068 2°49.439 6.7 348 7.6 101650 34
2010-04-23 07:08:29 51°22.079 2°49.422 5.9 347 7.5 101640 35
2010-04-23 07:08:35 51°22.096 2°49.395 6.3 349 7.5 101640 35
2010-04-23 07:08:40 51°22.11 2°49.374 6.3 346 7.5 101650 34
2010-04-23 07:08:45 51°22.124 2°49.352 6.3 349 7.5 101650 34
2010-04-23 07:08:49 51°22.135 2°49.334 6.1 346 7.5 101640 34
2010-04-23 07:08:55 51°22.151 2°49.307 5.9 348 7.5 101640 34
2010-04-23 07:09:00 51°22.166 2°49.286 5.7 347 7.5 101650 34
2010-04-23 07:09:05 51°22.179 2°49.263 6 347 7.5 101650 34
2010-04-23 07:09:09 51°22.19 2°49.246 6.5 346 7.5 101650 34
2010-04-23 07:09:15 51°22.206 2°49.218 5.6 347 7.5 101650 34
2010-04-23 07:09:20 51°22.22 2°49.196 6.2 347 7.5 101650 37
2010-04-23 07:09:25 51°22.233 2°49.173 5.7 350 7.5 101650 37
2010-04-23 07:09:29 51°22.244 2°49.156 5.4 349 7.5 101650 34
2010-04-23 07:09:35 51°22.26 2°49.128 5.9 347 7.5 101650 34
2010-04-23 07:09:40 51°22.274 2°49.106 6.3 348 7.5 101650 34
2010-04-23 07:09:45 51°22.288 2°49.084 6.7 348 7.5 101650 34
2010-04-23 07:09:49 51°22.299 2°49.067 6.5 348 7.5 101650 34
2010-04-23 07:09:55 51°22.315 2°49.04 6.6 347 7.5 101650 34
2010-04-23 07:10:00 51°22.328 2°49.018 6.6 348 7.5 101660 34
2010-04-23 07:10:05 51°22.342 2°48.995 5.8 283 7.5 101660 34
2010-04-23 07:10:09 51°22.353 2°48.977 7 348 7.5 101650 35
2010-04-23 07:10:15 51°22.369 2°48.951 6.2 347 7.5 101650 35
2010-04-23 07:10:20 51°22.382 2°48.928 7.1 349 7.5 101650 34
2010-04-23 07:10:25 51°22.396 2°48.906 6.1 347 7.5 101650 34
2010-04-23 07:10:29 51°22.407 2°48.889 5.4 347 7.4 101650 34
2010-04-23 07:10:35 51°22.423 2°48.863 7.3 349 7.4 101650 34
2010-04-23 07:10:40 51°22.437 2°48.841 6.4 346 7.4 101650 37
2010-04-23 07:10:45 51°22.451 2°48.82 6.5 348 7.4 101650 37
2010-04-23 07:10:49 51°22.462 2°48.803 6.9 348 7.4 101650 33
2010-04-23 07:10:55 51°22.478 2°48.776 6.8 348 7.4 101650 33
2010-04-23 07:11:00 51°22.492 2°48.755 6.8 347 7.4 101660 36
2010-04-23 07:11:05 51°22.506 2°48.733 5.9 349 7.4 101660 36
2010-04-23 07:11:09 51°22.517 2°48.716 6.2 348 7.4 101660 34
2010-04-23 07:11:15 51°22.533 2°48.69 6.5 349 7.4 101660 34
2010-04-23 07:11:20 51°22.547 2°48.669 6.7 349 7.4 101650 35
2010-04-23 07:11:25 51°22.56 2°48.647 5.9 349 7.4 101650 35
2010-04-23 07:11:29 51°22.572 2°48.63 6.6 350 7.4 101650 35
2010-04-23 07:11:35 51°22.587 2°48.602 6 349 7.4 101650 35
2010-04-23 07:11:40 51°22.6 2°48.581 5.7 348 7.4 101650 37
2010-04-23 07:11:45 51°22.612 2°48.557 5.7 347 7.4 101650 37
2010-04-23 07:11:49 51°22.622 2°48.539 6.9 348 7.4 101660 37
2010-04-23 07:11:55 51°22.636 2°48.51 5.5 351 7.4 101660 37
2010-04-23 07:12:00 51°22.648 2°48.486 5.6 351 7.4 101650 35
2010-04-23 07:12:05 51°22.659 2°48.461 5.1 351 7.4 101650 35
2010-04-23 07:12:09 51°22.668 2°48.442 5.1 351 7.4 101660 36
2010-04-23 07:12:14 51°22.679 2°48.417 5.1 351 7.4 101660 36
2010-04-23 07:12:20 51°22.692 2°48.387 5.6 353 7.4 101650 34
2010-04-23 07:12:25 51°22.703 2°48.363 5.4 351 7.4 101650 34
2010-04-23 07:12:29 51°22.711 2°48.343 5.8 352 7.4 101660 34
2010-04-23 07:12:35 51°22.723 2°48.313 5.6 352 7.4 101660 34
2010-04-23 07:12:40 51°22.734 2°48.288 5.1 350 7.4 101660 36
2010-04-23 07:12:45 51°22.744 2°48.263 4.7 349 7.4 101660 36
2010-04-23 07:12:49 51°22.752 2°48.243 5.6 351 7.4 101660 34
2010-04-23 07:12:55 51°22.765 2°48.213 5.8 351 7.4 101660 34
2010-04-23 07:13:00 51°22.775 2°48.188 6.3 352 7.4 101660 36
2010-04-23 07:13:05 51°22.786 2°48.163 5.4 351 7.4 101660 36
2010-04-23 07:13:09 51°22.795 2°48.143 5 349 7.4 101660 36
2010-04-23 07:13:15 51°22.807 2°48.113 5.5 351 7.4 101660 36
2010-04-23 07:13:20 51°22.818 2°48.088 5.6 349 7.4 101650 34
2010-04-23 07:13:25 51°22.829 2°48.063 5.3 352 7.4 101650 34
2010-04-23 07:13:30 51°22.84 2°48.038 5.4 353 7.4 101660 33
2010-04-23 07:13:35 51°22.851 2°48.014 5.5 351 7.4 101660 33
2010-04-23 07:13:40 51°22.861 2°47.989 5.2 353 7.4 101660 36
2010-04-23 07:13:45 51°22.872 2°47.964 5.6 349 7.4 101660 36
2010-04-23 07:13:50 51°22.882 2°47.939 5.7 350 7.4 101660 34
2010-04-23 07:13:55 51°22.893 2°47.914 5.6 353 7.4 101660 34
2010-04-23 07:14:00 51°22.904 2°47.889 5.6 350 7.4 101660 35
2010-04-23 07:14:05 51°22.915 2°47.865 5.5 350 7.4 101660 35
2010-04-23 07:14:09 51°22.923 2°47.844 6.6 350 7.4 101660 34
2010-04-23 07:14:15 51°22.937 2°47.815 6.1 352 7.4 101660 34
2010-04-23 07:14:20 51°22.947 2°47.79 5.3 352 7.4 101660 35
2010-04-23 07:14:25 51°22.958 2°47.765 5.7 348 7.4 101660 35
2010-04-23 07:14:29 51°22.966 2°47.745 5.7 351 7.4 101660 34
2010-04-23 07:14:35 51°22.979 2°47.715 5.6 349 7.4 101660 34
2010-04-23 07:14:40 51°22.99 2°47.691 6 351 7.4 101660 37
2010-04-23 07:14:45 51°23.001 2°47.666 5.8 351 7.4 101660 37
2010-04-23 07:14:49 51°23.009 2°47.646 5.5 352 7.4 101660 34
2010-04-23 07:14:55 51°23.022 2°47.616 5.5 352 7.4 101660 34
2010-04-23 07:15:00 51°23.033 2°47.592 5.2 352 7.4 101660 34
2010-04-23 07:15:05 51°23.044 2°47.567 6 349 7.4 101660 34
2010-04-23 07:15:09 51°23.052 2°47.547 5.3 352 7.4 101660 37
2010-04-23 07:15:15 51°23.065 2°47.517 5.1 352 7.4 101660 37
2010-04-23 07:15:20 51°23.076 2°47.492 5 351 7.4 101660 34
2010-04-23 07:15:25 51°23.087 2°47.468 4.6 353 7.4 101660 34
2010-04-23 07:15:29 51°23.096 2°47.448 5 352 7.4 101660 36
2010-04-23 07:15:35 51°23.109 2°47.418 5.3 353 7.4 101660 36
2010-04-23 07:15:40 51°23.12 2°47.393 5.2 352 7.3 101660 37
2010-04-23 07:15:45 51°23.131 2°47.369 4.8 351 7.3 101660 37
2010-04-23 07:15:49 51°23.14 2°47.349 4.9 351 7.3 101660 34
2010-04-23 07:15:55 51°23.153 2°47.319 4.7 350 7.3 101660 34
2010-04-23 07:16:00 51°23.164 2°47.294 5.2 351 7.4 101660 37
2010-04-23 07:16:05 51°23.175 2°47.27 5.5 353 7.4 101660 37
2010-04-23 07:16:09 51°23.184 2°47.25 5.6 352 7.4 101660 35
2010-04-23 07:16:15 51°23.197 2°47.22 5.9 352 7.4 101660 35
2010-04-23 07:16:20 51°23.208 2°47.195 5.8 353 7.4 101660 34
2010-04-23 07:16:25 51°23.219 2°47.169 5.8 350 7.4 101660 34
2010-04-23 07:16:29 51°23.227 2°47.15 5.9 351 7.4 101660 34
2010-04-23 07:16:35 51°23.24 2°47.12 5.9 350 7.4 101660 34
2010-04-23 07:16:40 51°23.251 2°47.094 5.9 351 7.4 101650 36
2010-04-23 07:16:45 51°23.262 2°47.069 5.5 350 7.4 101650 36
2010-04-23 07:16:49 51°23.27 2°47.049 5.4 350 7.4 101650 36
2010-04-23 07:16:55 51°23.283 2°47.019 5.2 350 7.4 101650 36
2010-04-23 07:17:00 51°23.294 2°46.994 5.1 350 7.4 101650 37
2010-04-23 07:17:05 51°23.304 2°46.968 5.4 352 7.4 101650 37
2010-04-23 07:17:09 51°23.313 2°46.948 5.2 348 7.3 101650 37
2010-04-23 07:17:15 51°23.325 2°46.917 5.4 352 7.3 101650 37
2010-04-23 07:17:20 51°23.336 2°46.891 5.2 350 7.3 101650 37
2010-04-23 07:17:25 51°23.346 2°46.865 5.1 352 7.3 101650 37
2010-04-23 07:17:29 51°23.355 2°46.844 4.9 351 7.3 101660 37
2010-04-23 07:17:35 51°23.368 2°46.813 5.6 350 7.3 101660 37
2010-04-23 07:17:40 51°23.379 2°46.787 5.6 349 7.3 101650 34
2010-04-23 07:17:45 51°23.389 2°46.761 4.8 349 7.3 101650 34
2010-04-23 07:17:49 51°23.398 2°46.741 4.8 348 7.3 101650 34
2010-04-23 07:17:55 51°23.411 2°46.71 4.6 350 7.3 101650 34
2010-04-23 07:18:00 51°23.421 2°46.684 4.9 350 7.3 101650 34
2010-04-23 07:18:05 51°23.432 2°46.659 5.5 352 7.3 101650 34
2010-04-23 07:18:09 51°23.441 2°46.638 4.8 350 7.3 101650 37
2010-04-23 07:18:15 51°23.453 2°46.606 5.7 352 7.3 101650 37
2010-04-23 07:18:20 51°23.463 2°46.58 5.1 349 7.3 101660 34
2010-04-23 07:18:25 51°23.473 2°46.553 6.1 352 7.3 101660 34
2010-04-23 07:18:29 51°23.481 2°46.532 5.2 351 7.3 101650 34
2010-04-23 07:18:35 51°23.493 2°46.5 4.9 351 7.3 101650 34
2010-04-23 07:18:40 51°23.503 2°46.474 5.3 350 7.3 101660 34
2010-04-23 07:18:45 51°23.512 2°46.447 5 351 7.3 101660 34
2010-04-23 07:18:49 51°23.52 2°46.425 4.4 351 7.3 101650 36
2010-04-23 07:18:55 51°23.531 2°46.393 4.9 352 7.3 101650 36
2010-04-23 07:19:00 51°23.541 2°46.366 4.4 348 7.3 101660 35
2010-04-23 07:19:05 51°23.549 2°46.339 4.6 352 7.3 101660 35
2010-04-23 07:19:09 51°23.557 2°46.317 4.6 353 7.3 101660 37
2010-04-23 07:19:14 51°23.566 2°46.29 4.9 352 7.3 101660 37
2010-04-23 07:19:20 51°23.577 2°46.257 4.6 352 7.3 101660 34
2010-04-23 07:19:25 51°23.586 2°46.23 4.8 347 7.3 101660 34
2010-04-23 07:19:29 51°23.592 2°46.208 5.1 353 7.3 101660 35
2010-04-23 07:19:35 51°23.603 2°46.175 5.6 347 7.3 101660 35
2010-04-23 07:19:40 51°23.612 2°46.147 5.4 349 7.3 101660 36
2010-04-23 07:19:45 51°23.622 2°46.12 4.9 350 7.3 101660 36
2010-04-23 07:19:49 51°23.629 2°46.098 5.3 351 7.3 101650 35
2010-04-23 07:19:55 51°23.64 2°46.065 5 350 7.3 101650 35
2010-04-23 07:20:00 51°23.648 2°46.038 4.9 352 7.3 101660 35
2010-04-23 07:20:05 51°23.658 2°46.011 4.9 350 7.3 101660 35
2010-04-23 07:20:09 51°23.665 2°45.989 4.7 352 7.3 101660 34
2010-04-23 07:20:15 51°23.675 2°45.956 4.7 349 7.3 101660 34
2010-04-23 07:20:20 51°23.685 2°45.929 4.8 351 7.3 101660 34
2010-04-23 07:20:25 51°23.694 2°45.902 5.1 353 7.3 101660 34
2010-04-23 07:20:30 51°23.704 2°45.875 4.6 351 7.3 101650 37
2010-04-23 07:20:35 51°23.713 2°45.848 5 353 7.3 101650 37
2010-04-23 07:20:40 51°23.722 2°45.82 4.5 348 7.3 101660 37
2010-04-23 07:20:45 51°23.73 2°45.793 5 352 7.3 101660 37
2010-04-23 07:20:49 51°23.738 2°45.771 4.7 349 7.3 101660 36
2010-04-23 07:20:55 51°23.749 2°45.738 4.7 350 7.3 101660 36
2010-04-23 07:21:00 51°23.758 2°45.71 5.4 346 7.3 101660 35
2010-04-23 07:21:05 51°23.767 2°45.683 5.7 352 7.3 101660 35
2010-04-23 07:21:09 51°23.774 2°45.661 5.4 352 7.3 101660 35
2010-04-23 07:21:15 51°23.785 2°45.628 4.8 352 7.3 101660 35
2010-04-23 07:21:20 51°23.794 2°45.601 4.9 347 7.4 101650 37
2010-04-23 07:21:25 51°23.803 2°45.573 5.4 352 7.4 101650 37
2010-04-23 07:21:29 51°23.81 2°45.552 5.1 351 7.3 101660 36
2010-04-23 07:21:35 51°23.821 2°45.519 5.1 350 7.3 101660 36
2010-04-23 07:21:40 51°23.83 2°45.493 4.8 351 7.3 101660 34
2010-04-23 07:21:45 51°23.839 2°45.465 5.2 351 7.3 101660 34
2010-04-23 07:21:49 51°23.846 2°45.444 5.4 352 7.3 101660 37
2010-04-23 07:21:55 51°23.857 2°45.411 5.3 351 7.3 101660 37
2010-04-23 07:22:00 51°23.866 2°45.384 5.5 351 7.3 101660 34
2010-04-23 07:22:05 51°23.876 2°45.357 4.3 349 7.3 101660 34
2010-04-23 07:22:10 51°23.885 2°45.33 4.7 351 7.3 101660 34
2010-04-23 07:22:15 51°23.894 2°45.303 4.1 351 7.3 101660 34
2010-04-23 07:22:20 51°23.902 2°45.276 4.4 352 7.3 101660 37
2010-04-23 07:22:25 51°23.912 2°45.249 4.4 349 7.3 101660 37
2010-04-23 07:22:30 51°23.921 2°45.221 4.9 349 7.3 101670 35
2010-04-23 07:22:35 51°23.93 2°45.194 5.1 353 7.3 101670 35
2010-04-23 07:22:40 51°23.939 2°45.168 4.8 352 7.3 101660 34
2010-04-23 07:22:45 51°23.949 2°45.141 5.3 351 7.3 101660 34
2010-04-23 07:22:50 51°23.958 2°45.114 5.4 350 7.3 101670 34
2010-04-23 07:22:55 51°23.967 2°45.087 5.2 348 7.3 101670 34
2010-04-23 07:23:00 51°23.976 2°45.06 5.3 350 7.3 101660 34
2010-04-23 07:23:05 51°23.985 2°45.034 5.6 351 7.3 101660 34
2010-04-23 07:23:09 51°23.992 2°45.012 6 349 7.3 101670 37
2010-04-23 07:23:15 51°24.004 2°44.98 5 350 7.3 101670 37
2010-04-23 07:23:20 51°24.012 2°44.953 5.3 351 7.3 101670 37
2010-04-23 07:23:25 51°24.022 2°44.926 4.9 351 7.3 101670 37
2010-04-23 07:23:29 51°24.029 2°44.905 5.2 351 7.3 101660 37
2010-04-23 07:23:35 51°24.04 2°44.873 4.8 350 7.3 101660 37
2010-04-23 07:23:40 51°24.049 2°44.846 4.9 350 7.3 101660 37
2010-04-23 07:23:45 51°24.058 2°44.819 4.7 350 7.3 101660 37
2010-04-23 07:23:49 51°24.065 2°44.797 4.5 350 7.3 101670 37
2010-04-23 07:23:55 51°24.076 2°44.765 5 351 7.3 101670 37
2010-04-23 07:24:00 51°24.085 2°44.738 5.1 351 7.3 101660 37
2010-04-23 07:24:05 51°24.094 2°44.711 5.1 350 7.3 101660 37
2010-04-23 07:24:09 51°24.101 2°44.689 4.8 350 7.3 101670 35
2010-04-23 07:24:15 51°24.112 2°44.657 5.2 349 7.3 101670 35
2010-04-23 07:24:20 51°24.121 2°44.63 5.4 349 7.3 101670 36
2010-04-23 07:24:25 51°24.13 2°44.603 5.3 350 7.3 101670 36
2010-04-23 07:24:29 51°24.138 2°44.582 5.4 350 7.3 101670 38
2010-04-23 07:24:35 51°24.148 2°44.55 5 351 7.3 101670 38
2010-04-23 07:24:40 51°24.157 2°44.523 4.9 351 7.3 101660 35
2010-04-23 07:24:45 51°24.166 2°44.497 5 350 7.3 101660 35
2010-04-23 07:24:49 51°24.173 2°44.477 4.9 356 7.3 101660 34
2010-04-23 07:24:55 51°24.183 2°44.449 4.4 354 7.3 101660 34
2010-04-23 07:25:00 51°24.19 2°44.427 4.1 353 7.3 101660 37
2010-04-23 07:25:05 51°24.197 2°44.407 3.8 359 7.3 101660 37
2010-04-23 07:25:09 51°24.203 2°44.391 3.7 360 7.3 101670 34
2010-04-23 07:25:15 51°24.211 2°44.369 3.2 1 7.3 101670 34
2010-04-23 07:25:20 51°24.217 2°44.351 2.9 2 7.3 101660 34
2010-04-23 07:25:25 51°24.224 2°44.334 3.3 2 7.3 101660 34
2010-04-23 07:25:29 51°24.229 2°44.32 2.9 4 7.3 101660 34
2010-04-23 07:25:35 51°24.237 2°44.299 3.1 6 7.3 101660 34
2010-04-23 07:25:40 51°24.243 2°44.283 3.1 1 7.3 101670 34
2010-04-23 07:25:45 51°24.25 2°44.267 3 6 7.3 101670 34
2010-04-23 07:25:49 51°24.255 2°44.255 2.9 7 7.3 101670 34
2010-04-23 07:25:55 51°24.262 2°44.238 2.5 7 7.3 101670 34
2010-04-23 07:26:00 51°24.267 2°44.223 2.4 7 7.3 101670 35
2010-04-23 07:26:05 51°24.273 2°44.209 2.7 7 7.3 101670 35
2010-04-23 07:26:09 51°24.277 2°44.197 3 8 7.3 101670 35
2010-04-23 07:26:15 51°24.284 2°44.18 2.7 8 7.3 101670 35
2010-04-23 07:26:20 51°24.29 2°44.166 2.9 7 7.3 101670 34
2010-04-23 07:26:25 51°24.296 2°44.151 2.8 8 7.3 101670 34
2010-04-23 07:26:29 51°24.301 2°44.14 2.4 5 7.3 101670 34
2010-04-23 07:26:35 51°24.308 2°44.123 2.7 9 7.3 101670 34
2010-04-23 07:26:40 51°24.314 2°44.109 2.8 8 7.3 101670 34
2010-04-23 07:26:45 51°24.32 2°44.094 3 8 7.3 101670 34
2010-04-23 07:26:49 51°24.325 2°44.083 3 9 7.3 101660 33
2010-04-23 07:26:55 51°24.332 2°44.066 2.6 7 7.3 101660 33
2010-04-23 07:27:00 51°24.339 2°44.052 2.4 8 7.3 101670 37
2010-04-23 07:27:05 51°24.345 2°44.037 2.4 8 7.3 101670 37
2010-04-23 07:27:09 51°24.35 2°44.026 2.4 7 7.3 101670 34
2010-04-23 07:27:15 51°24.357 2°44.008 2.6 8 7.3 101670 34
2010-04-23 07:27:20 51°24.362 2°43.993 3.1 10 7.3 101670 38
2010-04-23 07:27:25 51°24.368 2°43.979 3.1 8 7.3 101670 38
2010-04-23 07:27:30 51°24.373 2°43.965 2.8 10 7.3 101670 35
2010-04-23 07:27:35 51°24.379 2°43.951 3 8 7.3 101670 35
2010-04-23 07:27:40 51°24.384 2°43.939 2.9 10 7.3 101670 35
2010-04-23 07:27:45 51°24.39 2°43.927 3 13 7.3 101670 35
2010-04-23 07:27:49 51°24.394 2°43.918 3.1 12 7.3 101670 35
2010-04-23 07:27:55 51°24.401 2°43.905 3.5 15 7.3 101670 35
2010-04-23 07:28:00 51°24.406 2°43.895 3.2 16 7.3 101670 36
2010-04-23 07:28:05 51°24.411 2°43.885 2.9 14 7.3 101670 36
2010-04-23 07:28:09 51°24.415 2°43.877 2.7 16 7.3 101670 34
2010-04-23 07:28:15 51°24.421 2°43.867 3.2 17 7.3 101670 34
2010-04-23 07:28:20 51°24.426 2°43.858 2.9 16 7.4 101670 35
2010-04-23 07:28:25 51°24.431 2°43.85 3 10 7.4 101670 35
2010-04-23 07:28:29 51°24.435 2°43.842 3.1 13 7.4 101670 36
2010-04-23 07:28:35 51°24.441 2°43.832 2.7 10 7.4 101670 36
2010-04-23 07:28:40 51°24.446 2°43.823 2.9 15 7.4 101670 35
2010-04-23 07:28:45 51°24.451 2°43.814 3.1 12 7.4 101670 35
2010-04-23 07:28:49 51°24.455 2°43.806 3.1 10 7.4 101670 34
2010-04-23 07:28:55 51°24.461 2°43.795 3.2 16 7.4 101670 34
2010-04-23 07:29:00 51°24.466 2°43.785 3.2 13 7.4 101670 34
2010-04-23 07:29:05 51°24.471 2°43.776 3.1 14 7.4 101670 34
2010-04-23 07:29:09 51°24.475 2°43.768 2.9 14 7.4 101670 34
2010-04-23 07:29:15 51°24.482 2°43.757 3.1 10 7.4 101670 34
2010-04-23 07:29:20 51°24.488 2°43.748 3.1 10 7.4 101670 38
2010-04-23 07:29:25 51°24.493 2°43.739 3.7 10 7.4 101670 38
2010-04-23 07:29:29 51°24.498 2°43.732 3.7 10 7.4 101670 33
2010-04-23 07:29:35 51°24.504 2°43.723 3.5 13 7.4 101670 33
2010-04-23 07:29:40 51°24.51 2°43.717 3.5 11 7.4 101660 34
2010-04-23 07:29:45 51°24.516 2°43.71 4 12 7.4 101660 34
2010-04-23 07:29:49 51°24.521 2°43.705 3.7 11 7.4 101670 34
2010-04-23 07:29:55 51°24.528 2°43.698 3.5 13 7.4 101670 34
2010-04-23 07:30:00 51°24.534 2°43.693 3.5 13 7.4 101670 34
2010-04-23 07:30:05 51°24.54 2°43.689 3.5 13 7.4 101670 34
2010-04-23 07:30:09 51°24.545 2°43.685 3.7 14 7.4 101670 34
2010-04-23 07:30:15 51°24.551 2°43.68 3.4 12 7.4 101670 34
2010-04-23 07:30:20 51°24.557 2°43.677 3.3 16 7.4 101660 34
2010-04-23 07:30:25 51°24.562 2°43.675 3.5 16 7.4 101660 34
2010-04-23 07:30:29 51°24.565 2°43.674 3.6 17 7.4 101660 35
2010-04-23 07:30:35 51°24.57 2°43.673 3.9 10 7.4 101660 35
2010-04-23 07:30:40 51°24.574 2°43.673 4 13 7.4 101670 35
2010-04-23 07:30:45 51°24.578 2°43.673 3.4 7 7.4 101670 35
2010-04-23 07:30:49 51°24.581 2°43.674 3.6 7 7.4 101670 34
2010-04-23 07:30:55 51°24.585 2°43.675 3.2 4 7.4 101670 34
2010-04-23 07:31:00 51°24.589 2°43.677 3.9 1 7.4 101660 34
2010-04-23 07:31:05 51°24.592 2°43.678 3.5 2 7.4 101660 34
2010-04-23 07:31:09 51°24.595 2°43.679 3 4 7.4 101660 34
2010-04-23 07:31:15 51°24.599 2°43.681 3.2 3 7.4 101660 34
2010-04-23 07:31:20 51°24.603 2°43.683 3.6 2 7.4 101660 38
2010-04-23 07:31:25 51°24.606 2°43.684 3.7 4 7.4 101660 38
2010-04-23 07:31:29 51°24.609 2°43.686 3.8 7 7.5 101660 34
2010-04-23 07:31:35 51°24.612 2°43.688 3.6 7 7.5 101660 34
2010-04-23 07:31:40 51°24.615 2°43.689 2.9 7 7.5 101670 34
2010-04-23 07:31:45 51°24.618 2°43.691 3.2 6 7.5 101670 34
2010-04-23 07:31:49 51°24.62 2°43.693 2.8 5 7.5 101660 34
2010-04-23 07:31:55 51°24.623 2°43.695 2.9 360 7.5 101660 34
2010-04-23 07:32:00 51°24.626 2°43.698 2.9 359 7.4 101670 36
2010-04-23 07:32:05 51°24.629 2°43.699 2.9 6 7.4 101670 36
2010-04-23 07:32:09 51°24.631 2°43.701 3.5 2 7.4 101660 33
2010-04-23 07:32:15 51°24.635 2°43.703 3.2 7 7.4 101660 33
2010-04-23 07:32:20 51°24.638 2°43.705 3.9 7 7.4 101670 36
2010-04-23 07:32:25 51°24.64 2°43.706 3.9 7 7.4 101670 36
2010-04-23 07:32:29 51°24.642 2°43.708 4.1 9 7.4 101660 37
2010-04-23 07:32:35 51°24.645 2°43.71 4 8 7.4 101660 37
2010-04-23 07:32:40 51°24.648 2°43.712 4.4 11 7.5 101660 34
2010-04-23 07:32:45 51°24.65 2°43.713 4.1 12 7.5 101660 34
2010-04-23 07:32:49 51°24.652 2°43.715 3.9 13 7.5 101660 34
2010-04-23 07:32:55 51°24.654 2°43.717 3.5 14 7.5 101660 34
2010-04-23 07:33:00 51°24.657 2°43.718 3.6 16 7.5 101660 37
2010-04-23 07:33:05 51°24.659 2°43.72 3.4 16 7.5 101660 37
2010-04-23 07:33:09 51°24.661 2°43.721 3.4 18 7.4 101670 34
2010-04-23 07:33:15 51°24.663 2°43.722 3.2 18 7.4 101670 34
2010-04-23 07:33:20 51°24.665 2°43.724 3.5 19 7.4 101660 37
2010-04-23 07:33:25 51°24.667 2°43.725 3.6 19 7.4 101660 37
2010-04-23 07:33:29 51°24.669 2°43.726 3.6 20 7.4 101660 34
2010-04-23 07:33:35 51°24.672 2°43.728 3.7 21 7.4 101660 34
2010-04-23 07:33:40 51°24.674 2°43.73 3.4 23 7.4 101660 37
2010-04-23 07:33:45 51°24.676 2°43.731 3.5 25 7.4 101660 37
2010-04-23 07:33:49 51°24.678 2°43.732 3.4 25 7.4 101660 35
2010-04-23 07:33:55 51°24.68 2°43.734 3.5 21 7.4 101660 35
2010-04-23 07:34:00 51°24.682 2°43.736 3.6 23 7.4 101660 37
2010-04-23 07:34:05 51°24.684 2°43.737 3.3 22 7.4 101660 37
2010-04-23 07:34:09 51°24.686 2°43.738 3.2 23 7.4 101660 34
2010-04-23 07:34:15 51°24.688 2°43.74 3.4 23 7.4 101660 34
2010-04-23 07:34:20 51°24.69 2°43.742 3.4 21 7.4 101660 34
2010-04-23 07:34:25 51°24.692 2°43.743 3.1 22 7.4 101660 34
2010-04-23 07:34:29 51°24.694 2°43.744 3.3 22 7.4 101660 34
2010-04-23 07:34:35 51°24.696 2°43.746 3.4 23 7.4 101660 34
2010-04-23 07:34:40 51°24.698 2°43.747 3.5 22 7.4 101670 34
2010-04-23 07:34:45 51°24.7 2°43.749 3.3 20 7.4 101670 34
2010-04-23 07:34:49 51°24.702 2°43.75 3.3 23 7.4 101660 32
2010-04-23 07:34:55 51°24.704 2°43.751 3.3 23 7.4 101660 32
2010-04-23 07:35:00 51°24.706 2°43.753 3.9 22 7.4 101660 34
2010-04-23 07:35:05 51°24.708 2°43.754 3.4 22 7.4 101660 34
2010-04-23 07:35:09 51°24.709 2°43.756 3.7 22 7.4 101660 34
2010-04-23 07:35:15 51°24.712 2°43.758 3.5 20 7.4 101660 34
2010-04-23 07:35:20 51°24.714 2°43.759 3.9 20 7.4 101660 37
2010-04-23 07:35:25 51°24.715 2°43.761 3.7 21 7.4 101660 37
2010-04-23 07:35:29 51°24.717 2°43.762 3.6 22 7.4 101660 34
2010-04-23 07:35:35 51°24.719 2°43.764 3.5 22 7.4 101660 34
2010-04-23 07:35:40 51°24.721 2°43.765 3.3 23 7.4 101660 34
2010-04-23 07:35:45 51°24.723 2°43.767 3.6 22 7.4 101660 34
2010-04-23 07:35:49 51°24.724 2°43.769 3 21 7.4 101660 34
2010-04-23 07:35:55 51°24.725 2°43.771 3.3 21 7.4 101660 34
2010-04-23 07:36:00 51°24.726 2°43.773 3.2 26 7.5 101660 34
2010-04-23 07:36:05 51°24.727 2°43.776 3.4 24 7.5 101660 34
2010-04-23 07:36:09 51°24.727 2°43.778 3.4 25 7.5 101660 37
2010-04-23 07:36:15 51°24.728 2°43.782 3.8 28 7.5 101660 37
2010-04-23 07:36:20 51°24.728 2°43.785 3.8 29 7.5 101660 34
2010-04-23 07:36:25 51°24.727 2°43.789 3.8 30 7.5 101660 34
2010-04-23 07:36:30 51°24.726 2°43.794 3.7 31 7.5 101660 37
2010-04-23 07:36:37 51°24.726 2°43.802 4 31 7.5 101660 37
2010-04-23 07:36:42 51°24.725 2°43.807 4 34 7.5 101670 36
2010-04-23 07:36:48 51°24.723 2°43.814 4.2 37 7.5 101670 36
2010-04-23 07:36:53 51°24.723 2°43.82 3.7 36 7.5 101660 37
2010-04-23 07:36:58 51°24.723 2°43.826 4.2 36 7.5 101660 37
2010-04-23 07:37:04 51°24.722 2°43.833 3.7 40 7.5 101660 33
2010-04-23 07:37:09 51°24.722 2°43.838 3.4 37 7.5 101660 33
2010-04-23 07:37:13 51°24.722 2°43.841 3.6 34 7.5 101660 37
2010-04-23 07:37:18 51°24.723 2°43.845 3 32 7.5 101660 37
2010-04-23 07:37:23 51°24.725 2°43.847 3.3 33 7.5 101660 36
2010-04-23 07:37:28 51°24.726 2°43.848 3.1 41 7.5 101660 36
2010-04-23 07:37:33 51°24.728 2°43.849 2.9 37 7.5 101670 36
2010-04-23 07:37:38 51°24.729 2°43.849 2.8 42 7.5 101670 36
2010-04-23 07:37:43 51°24.73 2°43.848 2.9 43 7.5 101660 36
2010-04-23 07:37:48 51°24.732 2°43.848 2.6 54 7.5 101660 36
2010-04-23 07:37:53 51°24.732 2°43.847 2.5 26 7.5 101660 34
2010-04-23 07:37:59 51°24.734 2°43.845 2.2 54 7.5 101660 34
2010-04-23 07:38:03 51°24.734 2°43.844 1.9 21 7.5 101670 33
2010-04-23 07:38:08 51°24.735 2°43.842 2.5 56 7.5 101670 33
2010-04-23 07:38:13 51°24.735 2°43.84 1.5 26 7.5 101660 37
2010-04-23 07:38:18 51°24.735 2°43.838 1.6 58 7.5 101660 37
2010-04-23 07:38:23 51°24.735 2°43.835 1.1 25 7.5 101670 35
2010-04-23 07:38:28 51°24.735 2°43.832 0.2 56 7.5 101670 35
2010-04-23 07:38:33 51°24.734 2°43.829 0.1 24 7.6 101660 34
2010-04-23 07:38:38 51°24.733 2°43.825 -999 54 7.6 101660 34
2010-04-23 07:38:43 51°24.732 2°43.822 0.1 24 7.6 101670 34
2010-04-23 07:38:48 51°24.731 2°43.818 1.6 51 7.6 101670 34
2010-04-23 07:38:53 51°24.729 2°43.814 2 22 7.7 101660 35
2010-04-23 07:38:57 51°24.727 2°43.811 2.1 52 7.7 101660 35
2010-04-23 07:39:02 51°24.725 2°43.808 2.5 25 7.7 101660 38
2010-04-23 07:39:08 51°24.722 2°43.804 2 74 7.7 101660 38
2010-04-23 07:39:12 51°24.719 2°43.801 2.1 22 7.7 101670 33
2010-04-23 07:39:17 51°24.716 2°43.797 1.9 56 7.7 101670 33
2010-04-23 07:39:22 51°24.713 2°43.793 2.1 24 7.7 101670 33
2010-04-23 07:39:27 51°24.71 2°43.789 1.9 56 7.7 101670 33
2010-04-23 07:39:32 51°24.707 2°43.785 1.8 20 7.7 101660 35
2010-04-23 07:39:37 51°24.704 2°43.781 1.8 55 7.7 101660 35
2010-04-23 07:39:42 51°24.701 2°43.778 1.9 19 7.7 101670 33
2010-04-23 07:39:47 51°24.699 2°43.774 1.7 56 7.7 101670 33
2010-04-23 07:39:52 51°24.697 2°43.77 1.6 26 7.7 101670 34
2010-04-23 07:39:57 51°24.695 2°43.766 1.4 51 7.7 101670 34
2010-04-23 07:40:01 51°24.694 2°43.763 1.2 22 7.7 101670 34
2010-04-23 07:40:07 51°24.693 2°43.758 1.1 52 7.7 101670 34
2010-04-23 07:40:12 51°24.692 2°43.754 1.1 22 7.8 101670 32
2010-04-23 07:40:17 51°24.691 2°43.75 1.3 51 7.8 101670 32
2010-04-23 07:40:21 51°24.69 2°43.747 1.1 22 7.8 101670 34
2010-04-23 07:40:26 51°24.689 2°43.744 0.6 54 7.8 101670 34
2010-04-23 07:40:31 51°24.689 2°43.741 1.3 26 7.8 101670 33
2010-04-23 07:40:37 51°24.688 2°43.737 1.5 52 7.8 101670 33
2010-04-23 07:40:41 51°24.687 2°43.735 1.5 22 7.9 101670 35
2010-04-23 07:40:46 51°24.686 2°43.733 2.2 54 7.9 101670 35
2010-04-23 07:40:51 51°24.686 2°43.731 2.2 21 8 101670 35
2010-04-23 07:40:56 51°24.684 2°43.728 2.7 53 8 101670 35
2010-04-23 07:41:01 51°24.683 2°43.727 2.6 21 8 101670 34
2010-04-23 07:41:06 51°24.682 2°43.725 2.4 76 8 101670 34
2010-04-23 07:41:11 51°24.681 2°43.723 2.6 24 7.9 101670 37
2010-04-23 07:41:16 51°24.679 2°43.722 2.6 51 7.9 101670 37
2010-04-23 07:41:21 51°24.678 2°43.72 2 20 7.9 101670 37
2010-04-23 07:41:25 51°24.677 2°43.719 2.4 54 7.9 101670 37
2010-04-23 07:41:30 51°24.676 2°43.718 2.3 19 7.9 101670 37
2010-04-23 07:41:35 51°24.675 2°43.716 2.1 53 7.9 101670 37
2010-04-23 07:41:41 51°24.674 2°43.715 2.3 23 7.9 101670 34
2010-04-23 07:41:45 51°24.673 2°43.714 2.6 56 7.9 101670 34
2010-04-23 07:41:50 51°24.673 2°43.713 2.5 26 7.9 101670 35
2010-04-23 07:41:55 51°24.672 2°43.711 2 58 7.9 101670 35
2010-04-23 07:42:00 51°24.672 2°43.71 1.9 27 7.9 101670 36
2010-04-23 07:42:05 51°24.671 2°43.708 1.7 58 7.9 101670 36
2010-04-23 07:42:10 51°24.671 2°43.707 1 23 7.8 101670 33
2010-04-23 07:42:15 51°24.671 2°43.705 1.6 51 7.8 101670 33
2010-04-23 07:42:20 51°24.67 2°43.704 0.7 27 7.8 101670 36
2010-04-23 07:42:25 51°24.671 2°43.703 0.2 51 7.8 101670 36
2010-04-23 07:42:29 51°24.67 2°43.701 0.1 22 7.8 101670 34
2010-04-23 07:42:35 51°24.671 2°43.7 1.7 52 7.8 101670 34
2010-04-23 07:42:40 51°24.671 2°43.699 2.2 28 7.8 101670 35
2010-04-23 07:42:45 51°24.671 2°43.699 1.4 51 7.8 101670 35
2010-04-23 07:42:49 51°24.672 2°43.698 0.9 27 7.9 101670 36
2010-04-23 07:42:55 51°24.672 2°43.698 0.2 49 7.9 101670 36
2010-04-23 07:43:00 51°24.673 2°43.698 1.1 24 7.9 101670 34
2010-04-23 07:43:05 51°24.674 2°43.698 1.2 79 7.9 101670 34
2010-04-23 07:43:09 51°24.674 2°43.698 1.7 21 7.9 101660 35
2010-04-23 07:43:15 51°24.675 2°43.698 1.3 57 7.9 101660 35
2010-04-23 07:43:20 51°24.676 2°43.698 0.2 22 8 101670 36
2010-04-23 07:43:25 51°24.677 2°43.698 0.1 54 8 101670 36
2010-04-23 07:43:29 51°24.677 2°43.698 1.3 28 8 101670 37
2010-04-23 07:43:35 51°24.678 2°43.698 0.9 53 8 101670 37
2010-04-23 07:43:40 51°24.678 2°43.698 0.6 23 8.1 101670 35
2010-04-23 07:43:45 51°24.679 2°43.699 2.5 57 8.1 101670 35
2010-04-23 07:43:49 51°24.68 2°43.699 1.1 21 8.1 101670 38
2010-04-23 07:43:55 51°24.681 2°43.699 1.7 49 8.1 101670 38
2010-04-23 07:44:00 51°24.681 2°43.7 1.6 20 8.2 101670 38
2010-04-23 07:44:05 51°24.682 2°43.7 1.5 80 8.2 101670 38
2010-04-23 07:44:09 51°24.682 2°43.701 1.5 20 8.3 101670 35
2010-04-23 07:44:15 51°24.683 2°43.701 1.3 55 8.3 101670 35
2010-04-23 07:44:20 51°24.684 2°43.702 0.8 22 8.3 101670 34
2010-04-23 07:44:25 51°24.684 2°43.702 1.1 56 8.3 101670 34
2010-04-23 07:44:29 51°24.685 2°43.703 1.4 21 8.4 101670 34
2010-04-23 07:44:35 51°24.686 2°43.703 1.2 58 8.4 101670 34
2010-04-23 07:44:40 51°24.686 2°43.704 0.3 21 8.4 101670 35
2010-04-23 07:44:45 51°24.687 2°43.704 1 52 8.4 101670 35
2010-04-23 07:44:49 51°24.688 2°43.705 1.3 20 8.5 101670 35
2010-04-23 07:44:55 51°24.689 2°43.706 1.4 58 8.5 101670 35
2010-04-23 07:45:00 51°24.689 2°43.707 1.2 22 8.5 101670 35
2010-04-23 07:45:05 51°24.69 2°43.708 1.2 54 8.5 101670 35
2010-04-23 07:45:09 51°24.69 2°43.708 1 21 8.6 101670 33
2010-04-23 07:45:15 51°24.691 2°43.709 0.8 58 8.6 101670 33
2010-04-23 07:45:20 51°24.692 2°43.71 0.8 21 8.6 101670 37
2010-04-23 07:45:25 51°24.692 2°43.711 1.6 56 8.6 101670 37
2010-04-23 07:45:29 51°24.693 2°43.711 1.8 21 8.7 101670 34
2010-04-23 07:45:35 51°24.694 2°43.712 1.2 56 8.7 101670 34
2010-04-23 07:45:40 51°24.694 2°43.712 2.4 26 8.7 101670 38
2010-04-23 07:45:45 51°24.695 2°43.712 2.2 54 8.7 101670 38
2010-04-23 07:45:49 51°24.695 2°43.712 1.7 27 8.7 101670 36
2010-04-23 07:45:54 51°24.695 2°43.712 1.7 51 8.7 101670 36
2010-04-23 07:46:00 51°24.695 2°43.712 2.2 24 8.7 101670 36
2010-04-23 07:46:05 51°24.696 2°43.712 2.3 77 8.7 101670 36
2010-04-23 07:46:09 51°24.696 2°43.712 2.2 21 8.7 101670 34
2010-04-23 07:46:15 51°24.696 2°43.712 2.2 56 8.7 101670 34
2010-04-23 07:46:20 51°24.696 2°43.712 2.8 19 8.7 101670 37
2010-04-23 07:46:25 51°24.695 2°43.712 2.5 58 8.7 101670 37
2010-04-23 07:46:29 51°24.695 2°43.712 2.8 27 8.6 101670 33
2010-04-23 07:46:35 51°24.694 2°43.712 2.5 51 8.6 101670 33
2010-04-23 07:46:40 51°24.694 2°43.712 2.7 20 8.6 101670 33
2010-04-23 07:46:45 51°24.693 2°43.712 3 53 8.6 101670 33
2010-04-23 07:46:49 51°24.692 2°43.712 2.8 28 8.6 101670 36